DLH5D2 EDDF-SKBO

Flight info

Callsign DLH5D2
Flight time 1h 16m
Altitude 30000
Route ULKIG4L ULKIG Y180 DIK UN857 TOLVU/N0479F310 DCT RAPOR DCT GIMER DCT ESTOC UT300 PON UN872 DIDAK DCT AKEMO DCT RIVAK/M083F310 UN460 SIVIR DCT PASAS DCT 40N020W/M083F320 33N030W 27N040W/M083F340 21N050W DCT ELJEZ/N0492F340 UN669 MEBUK/N0484F360 UN669 MIQ UW52 PBL UW50 KIKAS DCT DOPLO DOPLO4E
Aircraft A346/H-SDE2E3FGHIJ3J4J5M1RWXY/LB1D1

Departure

Time 2026-05-07 02:06
Airport Frankfurt Main Airport (EDDF)

Arrival

Time 2026-05-07 03:23
Airport El Dorado International Airport (SKBO)
Time Latitude Longitude Altitude Speed Heading
2026-05-07 01:30 50.04666 8.56049 364 ft 0 kts 340°
2026-05-07 01:50 50.04644 8.56062 371 ft 4 kts 340°
2026-05-07 01:50 50.04623 8.56074 371 ft 4 kts 337°
2026-05-07 01:50 50.04604 8.56093 365 ft 4 kts 309°
2026-05-07 01:50 50.04596 8.56120 369 ft 4 kts 274°
2026-05-07 01:51 50.04599 8.56151 367 ft 1 kts 251°
2026-05-07 01:51 50.04594 8.56129 370 ft 4 kts 249°
2026-05-07 01:51 50.04584 8.56090 364 ft 4 kts 249°
2026-05-07 01:51 50.04580 8.56071 368 ft 0 kts 250°
2026-05-07 01:56 50.04579 8.56070 364 ft 0 kts 250°
2026-05-07 01:57 50.04571 8.56034 370 ft 7 kts 250°
2026-05-07 01:57 50.04539 8.55966 368 ft 8 kts 213°
2026-05-07 01:57 50.04483 8.55936 369 ft 8 kts 197°
2026-05-07 01:57 50.04424 8.55910 370 ft 9 kts 191°
2026-05-07 01:58 50.04352 8.55923 367 ft 12 kts 159°
2026-05-07 01:58 50.04294 8.55957 367 ft 5 kts 159°
2026-05-07 01:58 50.04258 8.55956 366 ft 6 kts 207°
2026-05-07 01:58 50.04229 8.55891 367 ft 9 kts 248°
2026-05-07 01:59 50.04203 8.55788 362 ft 11 kts 249°
2026-05-07 01:59 50.04173 8.55663 368 ft 13 kts 249°
2026-05-07 01:59 50.04139 8.55522 364 ft 14 kts 249°
2026-05-07 01:59 50.04104 8.55373 364 ft 15 kts 250°
2026-05-07 02:00 50.04069 8.55225 366 ft 14 kts 250°
2026-05-07 02:00 50.04033 8.55076 366 ft 15 kts 249°
2026-05-07 02:00 50.03997 8.54925 365 ft 15 kts 249°
2026-05-07 02:00 50.03958 8.54764 363 ft 16 kts 249°
2026-05-07 02:01 50.03918 8.54595 359 ft 17 kts 249°
2026-05-07 02:01 50.03879 8.54434 360 ft 12 kts 249°
2026-05-07 02:01 50.03836 8.54317 362 ft 13 kts 234°
2026-05-07 02:01 50.03792 8.54190 360 ft 14 kts 248°
2026-05-07 02:02 50.03758 8.54047 359 ft 15 kts 249°
2026-05-07 02:02 50.03721 8.53893 360 ft 15 kts 249°
2026-05-07 02:02 50.03683 8.53734 359 ft 16 kts 249°
2026-05-07 02:02 50.03641 8.53570 354 ft 17 kts 248°
2026-05-07 02:03 50.03600 8.53400 359 ft 17 kts 249°
2026-05-07 02:03 50.03558 8.53225 355 ft 17 kts 249°
2026-05-07 02:03 50.03515 8.53045 353 ft 18 kts 250°
2026-05-07 02:03 50.03470 8.52863 353 ft 18 kts 247°
2026-05-07 02:04 50.03430 8.52712 351 ft 12 kts 249°
2026-05-07 02:04 50.03414 8.52646 348 ft 6 kts 249°
2026-05-07 02:04 50.03399 8.52608 352 ft 4 kts 218°
2026-05-07 02:04 50.03373 8.52596 353 ft 5 kts 187°
2026-05-07 02:05 50.03334 8.52594 349 ft 6 kts 180°
2026-05-07 02:05 50.03251 8.52594 352 ft 30 kts 180°
2026-05-07 02:05 50.02823 8.52598 346 ft 90 kts 180°
2026-05-07 02:05 50.02013 8.52607 345 ft 141 kts 180°
2026-05-07 02:06 50.00862 8.52615 334 ft 185 kts 179°
2026-05-07 02:06 49.99498 8.52635 637 ft 197 kts 182°
2026-05-07 02:06 49.98132 8.52619 1247 ft 197 kts 182°
2026-05-07 02:06 49.96736 8.52667 1608 ft 206 kts 180°
2026-05-07 02:07 49.95266 8.52800 1903 ft 216 kts 179°
2026-05-07 02:07 49.92120 8.53178 2586 ft 236 kts 178°
2026-05-07 02:07 49.90485 8.53309 3083 ft 239 kts 179°
2026-05-07 02:08 49.88832 8.53418 3703 ft 237 kts 180°
2026-05-07 02:08 49.87189 8.53303 4275 ft 236 kts 194°
2026-05-07 02:08 49.85593 8.52614 4679 ft 243 kts 202°
2026-05-07 02:08 49.83961 8.51671 4966 ft 257 kts 204°
2026-05-07 02:09 49.82243 8.50655 5262 ft 272 kts 203°
2026-05-07 02:09 49.80438 8.49610 5726 ft 279 kts 203°
2026-05-07 02:09 49.78611 8.48572 6416 ft 279 kts 203°
2026-05-07 02:09 49.76789 8.47547 7055 ft 280 kts 203°
2026-05-07 02:10 49.74949 8.46512 7627 ft 283 kts 203°
2026-05-07 02:10 49.73193 8.45240 8144 ft 283 kts 223°
2026-05-07 02:10 49.72016 8.42863 8642 ft 279 kts 251°
2026-05-07 02:10 49.71659 8.39864 9253 ft 278 kts 267°
2026-05-07 02:11 49.71524 8.36895 9802 ft 282 kts 266°
2026-05-07 02:11 49.71368 8.33854 10291 ft 285 kts 266°
2026-05-07 02:11 49.71199 8.30775 10789 ft 289 kts 266°
2026-05-07 02:11 49.71023 8.27660 11284 ft 292 kts 266°
2026-05-07 02:12 49.70864 8.24500 11757 ft 296 kts 270°
2026-05-07 02:12 49.70960 8.21314 12249 ft 298 kts 278°
2026-05-07 02:12 49.71359 8.18148 12753 ft 301 kts 284°
2026-05-07 02:12 49.71865 8.14983 13253 ft 304 kts 284°
2026-05-07 02:13 49.72384 8.11789 13726 ft 308 kts 285°
2026-05-07 02:13 49.72910 8.08550 14139 ft 312 kts 285°
2026-05-07 02:13 49.73439 8.05279 14580 ft 314 kts 285°
2026-05-07 02:13 49.73968 8.01980 15029 ft 317 kts 285°
2026-05-07 02:14 49.74490 7.98703 15467 ft 319 kts 284°
2026-05-07 02:14 49.75020 7.95354 15908 ft 322 kts 284°
2026-05-07 02:14 49.75555 7.91975 16357 ft 324 kts 284°
2026-05-07 02:14 49.76115 7.88583 16792 ft 326 kts 290°
2026-05-07 02:15 49.77112 7.85424 17104 ft 332 kts 306°
2026-05-07 02:15 49.78687 7.82762 17305 ft 340 kts 319°
2026-05-07 02:15 49.80518 7.80354 17531 ft 350 kts 320°
2026-05-07 02:15 49.82422 7.77900 17740 ft 360 kts 320°
2026-05-07 02:16 49.84368 7.75363 17938 ft 370 kts 319°
2026-05-07 02:16 49.86142 7.72406 18119 ft 379 kts 305°
2026-05-07 02:16 49.87396 7.68817 18280 ft 388 kts 290°
2026-05-07 02:16 49.88149 7.64734 18459 ft 397 kts 284°
2026-05-07 02:17 49.88790 7.60503 18636 ft 406 kts 283°
2026-05-07 02:17 49.89433 7.56191 18902 ft 412 kts 283°
2026-05-07 02:17 49.90085 7.51844 19295 ft 415 kts 283°
2026-05-07 02:17 49.90745 7.47473 19730 ft 416 kts 283°
2026-05-07 02:18 49.91412 7.43077 20149 ft 418 kts 283°
2026-05-07 02:18 49.92082 7.38668 20559 ft 420 kts 283°
2026-05-07 02:18 49.92755 7.34236 20962 ft 422 kts 283°
2026-05-07 02:18 49.93237 7.31058 21226 ft 424 kts 283°
2026-05-07 02:19 49.95842 7.13803 22697 ft 432 kts 283°
2026-05-07 02:19 49.97199 7.04715 23421 ft 437 kts 283°
2026-05-07 02:19 49.97814 6.95156 23919 ft 444 kts 257°
2026-05-07 02:19 49.95847 6.85915 24673 ft 444 kts 252°
2026-05-07 02:20 49.93807 6.76441 25270 ft 448 kts 251°
2026-05-07 02:20 49.91794 6.67159 25862 ft 451 kts 251°
2026-05-07 02:20 49.90428 6.60903 26234 ft 454 kts 251°
2026-05-07 02:20 49.88254 6.50995 26836 ft 458 kts 251°
2026-05-07 02:21 49.86059 6.41042 27410 ft 462 kts 251°
2026-05-07 02:21 49.83747 6.30604 28021 ft 465 kts 251°
2026-05-07 02:21 49.79950 6.13587 29430 ft 461 kts 251°
2026-05-07 02:21 49.76620 5.98778 30236 ft 465 kts 250°
2026-05-07 02:22 49.74263 5.88360 30693 ft 468 kts 250°
2026-05-07 02:22 49.71932 5.78112 30938 ft 469 kts 251°
2026-05-07 02:22 49.64100 5.43989 30966 ft 470 kts 250°
2026-05-07 02:23 49.63550 5.41615 30963 ft 470 kts 250°
2026-05-07 02:23 49.56306 5.05409 30969 ft 471 kts 255°
2026-05-07 02:24 49.48101 4.59768 30981 ft 474 kts 255°
2026-05-07 02:24 49.38892 4.14158 30991 ft 475 kts 251°
2026-05-07 02:25 49.28108 3.68504 30990 ft 475 kts 251°
2026-05-07 02:25 49.17055 3.22468 30992 ft 475 kts 251°
2026-05-07 02:26 49.11886 3.01262 30988 ft 474 kts 251°
2026-05-07 02:26 49.09571 2.91829 30993 ft 474 kts 250°
2026-05-07 02:27 48.27564 -0.20074 31187 ft 468 kts 251°
2026-05-07 02:27 48.24727 -0.28958 31091 ft 484 kts 239°
2026-05-07 02:28 47.19306 -2.87470 30102 ft 490 kts 241°
2026-05-07 02:28 47.17646 -2.91827 31080 ft 487 kts 242°
2026-05-07 02:28 47.16001 -2.96196 31008 ft 488 kts 244°
2026-05-07 02:29 47.13130 -3.05223 30990 ft 488 kts 250°
2026-05-07 02:29 47.10915 -3.14649 30978 ft 487 kts 256°
2026-05-07 02:30 47.08971 -3.24194 30981 ft 487 kts 256°
2026-05-07 02:30 47.07028 -3.33724 30972 ft 486 kts 255°
2026-05-07 02:31 47.05077 -3.43234 30975 ft 486 kts 255°
2026-05-07 02:31 47.03131 -3.52661 30977 ft 486 kts 255°
2026-05-07 02:32 47.01165 -3.62145 30985 ft 486 kts 255°
2026-05-07 02:32 46.99191 -3.71614 30974 ft 485 kts 255°
2026-05-07 02:33 46.97211 -3.81070 30985 ft 485 kts 255°
2026-05-07 02:33 46.95224 -3.90517 30981 ft 484 kts 255°
2026-05-07 02:34 46.93230 -3.99952 30984 ft 484 kts 255°
2026-05-07 02:34 46.91229 -4.09376 30960 ft 484 kts 255°
2026-05-07 02:35 46.89222 -4.18784 30958 ft 484 kts 255°
2026-05-07 02:35 46.87206 -4.28191 30956 ft 484 kts 255°
2026-05-07 02:36 46.85180 -4.37601 30956 ft 484 kts 255°
2026-05-07 02:36 46.83147 -4.47004 30961 ft 485 kts 255°
2026-05-07 02:37 46.81120 -4.56338 30967 ft 485 kts 255°
2026-05-07 02:37 46.79068 -4.65742 30966 ft 485 kts 254°
2026-05-07 02:38 46.77013 -4.75114 30969 ft 484 kts 254°
2026-05-07 02:38 46.74948 -4.84496 30971 ft 485 kts 254°
2026-05-07 02:39 46.72878 -4.93852 30973 ft 483 kts 254°
2026-05-07 02:39 46.70803 -5.03190 30971 ft 483 kts 254°
2026-05-07 02:40 46.68738 -5.12450 30980 ft 483 kts 254°
2026-05-07 02:40 46.66649 -5.21771 30985 ft 483 kts 254°
2026-05-07 02:41 46.64554 -5.31069 30975 ft 482 kts 253°
2026-05-07 02:41 46.62456 -5.40327 30988 ft 481 kts 254°
2026-05-07 02:42 46.60358 -5.49576 30988 ft 481 kts 253°
2026-05-07 02:42 46.58258 -5.58780 30995 ft 480 kts 253°
2026-05-07 02:43 46.52478 -5.83877 30999 ft 479 kts 253°
2026-05-07 02:43 46.01994 -7.93717 31168 ft 480 kts 256°
2026-05-07 02:44 46.01197 -7.98367 31591 ft 475 kts 260°
2026-05-07 02:44 46.00602 -8.03035 31972 ft 473 kts 263°
2026-05-07 02:44 46.00009 -8.26864 32054 ft 473 kts 272°
2026-05-07 02:45 45.99474 -8.73433 32054 ft 475 kts 264°
2026-05-07 02:45 45.03283 -12.88696 31714 ft 463 kts 249°
2026-05-07 02:46 44.94839 -13.08289 32152 ft 469 kts 230°
2026-05-07 02:46 44.83925 -13.25375 32139 ft 467 kts 229°
2026-05-07 02:46 42.45556 -16.77985 32612 ft 447 kts 228°
2026-05-07 02:46 40.00751 -19.99709 32312 ft 465 kts 229°
2026-05-07 02:47 39.90145 -20.16429 32255 ft 494 kts 241°
2026-05-07 02:47 39.79352 -20.34366 32275 ft 507 kts 241°
2026-05-07 02:47 37.57297 -23.82525 32083 ft 496 kts 230°
2026-05-07 02:47 35.25479 -27.09609 32098 ft 502 kts 231°
2026-05-07 02:48 32.98299 -30.03468 32053 ft 491 kts 239°
2026-05-07 02:48 31.07042 -33.49849 31898 ft 488 kts 239°
2026-05-07 02:48 29.07060 -36.82160 31442 ft 493 kts 236°
2026-05-07 02:48 26.99105 -40.01710 32053 ft 494 kts 239°
2026-05-07 02:49 26.89865 -40.18714 34136 ft 491 kts 242°
2026-05-07 02:49 25.04228 -43.49587 33344 ft 496 kts 238°
2026-05-07 02:49 21.22076 -49.66603 33238 ft 485 kts 235°
2026-05-07 02:49 20.97935 -50.05069 34146 ft 484 kts 246°
2026-05-07 02:50 18.15498 -56.66091 34160 ft 495 kts 246°
2026-05-07 02:50 17.97968 -57.02591 34096 ft 480 kts 235°
2026-05-07 02:50 17.87500 -57.16948 34491 ft 483 kts 232°
2026-05-07 02:50 17.76949 -57.31219 36109 ft 472 kts 232°
2026-05-07 02:51 17.56319 -57.59062 36124 ft 470 kts 232°
2026-05-07 02:51 12.82430 -63.71653 35868 ft 428 kts 237°
2026-05-07 02:52 12.73510 -63.85082 36045 ft 461 kts 236°
2026-05-07 02:52 12.64141 -63.99012 36044 ft 469 kts 236°
2026-05-07 02:52 10.50119 -68.04276 35015 ft 449 kts 237°
2026-05-07 02:52 10.40336 -68.17109 36191 ft 452 kts 229°
2026-05-07 02:53 10.28944 -68.30209 36788 ft 476 kts 229°
2026-05-07 02:53 10.17416 -68.43485 38045 ft 478 kts 229°
2026-05-07 02:53 8.59035 -70.24883 36626 ft 471 kts 226°
2026-05-07 02:53 8.54769 -70.29677 37613 ft 459 kts 227°
2026-05-07 02:54 8.50489 -70.34512 37977 ft 465 kts 227°
2026-05-07 02:54 8.46165 -70.39366 38036 ft 476 kts 227°
2026-05-07 02:54 8.37229 -70.49357 38031 ft 479 kts 227°
2026-05-07 02:55 8.28237 -70.59396 38014 ft 478 kts 227°
2026-05-07 02:55 8.19291 -70.69371 38035 ft 479 kts 227°
2026-05-07 02:56 8.10338 -70.79354 38034 ft 479 kts 227°
2026-05-07 02:56 8.01381 -70.89333 38035 ft 478 kts 227°
2026-05-07 02:57 7.02095 -71.96321 36999 ft 476 kts 227°
2026-05-07 02:57 6.97878 -72.01477 37559 ft 478 kts 230°
2026-05-07 02:57 6.93767 -72.06742 38091 ft 477 kts 230°
2026-05-07 02:57 6.89661 -72.12005 38133 ft 478 kts 230°
2026-05-07 02:58 6.81380 -72.22606 38173 ft 478 kts 230°
2026-05-07 02:58 6.73130 -72.33164 38240 ft 477 kts 230°
2026-05-07 02:59 6.62383 -72.46907 38254 ft 477 kts 230°
2026-05-07 02:59 6.41750 -72.73247 38178 ft 477 kts 231°
2026-05-07 03:00 6.21124 -72.99541 38184 ft 477 kts 231°
2026-05-07 03:00 6.01755 -73.24204 38205 ft 479 kts 230°
2026-05-07 03:01 5.97625 -73.29456 38241 ft 478 kts 230°
2026-05-07 03:01 5.95562 -73.32074 37934 ft 475 kts 231°
2026-05-07 03:01 5.93506 -73.34691 37105 ft 480 kts 231°
2026-05-07 03:02 5.91418 -73.37352 36117 ft 488 kts 231°
2026-05-07 03:02 5.89290 -73.40057 35249 ft 494 kts 230°
2026-05-07 03:02 5.87057 -73.42710 34459 ft 499 kts 227°
2026-05-07 03:02 5.84669 -73.45264 33595 ft 502 kts 224°
2026-05-07 03:03 5.82128 -73.47702 32777 ft 505 kts 221°
2026-05-07 03:03 5.79457 -73.50000 32081 ft 505 kts 218°
2026-05-07 03:03 5.76673 -73.52150 31419 ft 505 kts 216°
2026-05-07 03:03 5.73841 -73.54252 30656 ft 506 kts 215°
2026-05-07 03:04 5.70994 -73.56355 29859 ft 508 kts 215°
2026-05-07 03:04 5.68178 -73.58437 29111 ft 508 kts 216°
2026-05-07 03:04 5.65327 -73.60548 28356 ft 508 kts 215°
2026-05-07 03:04 5.62490 -73.62648 27664 ft 505 kts 215°
2026-05-07 03:05 5.59673 -73.64734 27175 ft 499 kts 216°
2026-05-07 03:05 5.57829 -73.66097 26861 ft 495 kts 216°
2026-05-07 03:05 5.55073 -73.68136 26380 ft 490 kts 216°
2026-05-07 03:05 5.52333 -73.70167 25839 ft 486 kts 216°
2026-05-07 03:06 5.49622 -73.72176 25329 ft 482 kts 216°
2026-05-07 03:06 5.46925 -73.74176 24786 ft 480 kts 216°
2026-05-07 03:06 5.44305 -73.76230 24274 ft 477 kts 222°
2026-05-07 03:06 5.42114 -73.78711 23781 ft 473 kts 234°
2026-05-07 03:07 5.40494 -73.81565 23275 ft 468 kts 246°
2026-05-07 03:07 5.39375 -73.84604 22981 ft 458 kts 251°
2026-05-07 03:07 5.38381 -73.87593 22869 ft 444 kts 252°
2026-05-07 03:07 5.37424 -73.90499 22700 ft 432 kts 251°
2026-05-07 03:08 5.36488 -73.93303 22374 ft 414 kts 251°
2026-05-07 03:08 5.35577 -73.95990 22359 ft 397 kts 251°
2026-05-07 03:08 5.34697 -73.98566 22320 ft 383 kts 251°
2026-05-07 03:08 5.33841 -74.01063 22315 ft 377 kts 251°
2026-05-07 03:09 5.32988 -74.03556 22012 ft 378 kts 251°
2026-05-07 03:09 5.32135 -74.06048 21610 ft 375 kts 251°
2026-05-07 03:09 5.31290 -74.08519 21187 ft 372 kts 251°
2026-05-07 03:09 5.30449 -74.10973 20826 ft 369 kts 251°
2026-05-07 03:10 5.29617 -74.13404 20480 ft 366 kts 250°
2026-05-07 03:10 5.28801 -74.15785 20124 ft 363 kts 250°
2026-05-07 03:10 5.27970 -74.18210 19775 ft 361 kts 250°
2026-05-07 03:10 5.27155 -74.20588 19476 ft 359 kts 250°
2026-05-07 03:11 5.26354 -74.22924 19089 ft 358 kts 250°
2026-05-07 03:11 5.25544 -74.25286 18755 ft 357 kts 250°
2026-05-07 03:11 5.24730 -74.27660 18408 ft 356 kts 250°
2026-05-07 03:11 5.23941 -74.30008 18009 ft 354 kts 251°
2026-05-07 03:12 5.23171 -74.32349 17623 ft 351 kts 250°
2026-05-07 03:12 5.22403 -74.34672 17259 ft 349 kts 250°
2026-05-07 03:12 5.21593 -74.36967 16814 ft 347 kts 242°
2026-05-07 03:12 5.20218 -74.38895 16349 ft 334 kts 218°
2026-05-07 03:13 5.18307 -74.40091 15986 ft 319 kts 194°
2026-05-07 03:13 5.16172 -74.40448 15674 ft 308 kts 179°
2026-05-07 03:13 5.14037 -74.40538 15318 ft 306 kts 178°
2026-05-07 03:13 5.11914 -74.40614 14999 ft 304 kts 179°
2026-05-07 03:14 5.09807 -74.40701 14568 ft 300 kts 179°
2026-05-07 03:14 5.07787 -74.40790 14275 ft 288 kts 179°
2026-05-07 03:14 5.03956 -74.40975 13823 ft 265 kts 179°
2026-05-07 03:15 5.02129 -74.41063 13563 ft 261 kts 179°
2026-05-07 03:15 5.00325 -74.41149 13364 ft 258 kts 179°
2026-05-07 03:15 4.98525 -74.41235 13257 ft 259 kts 179°
2026-05-07 03:15 4.96727 -74.41321 13140 ft 258 kts 179°
2026-05-07 03:16 4.94935 -74.41408 13018 ft 257 kts 179°
2026-05-07 03:16 4.93147 -74.41491 12886 ft 256 kts 175°
2026-05-07 03:16 4.91415 -74.41217 12767 ft 250 kts 157°
2026-05-07 03:16 4.89863 -74.40455 12663 ft 248 kts 146°
2026-05-07 03:17 4.88421 -74.39508 12653 ft 248 kts 139°
2026-05-07 03:17 4.87199 -74.38349 12623 ft 232 kts 129°
2026-05-07 03:17 4.86234 -74.37148 12628 ft 213 kts 126°
2026-05-07 03:17 4.85353 -74.35961 12670 ft 211 kts 125°
2026-05-07 03:18 4.84479 -74.34773 12546 ft 210 kts 124°
2026-05-07 03:18 4.83620 -74.33613 12312 ft 209 kts 125°
2026-05-07 03:18 4.82749 -74.32449 12048 ft 207 kts 125°
2026-05-07 03:18 4.81882 -74.31296 11792 ft 206 kts 126°
2026-05-07 03:19 4.81012 -74.30141 11530 ft 200 kts 126°
2026-05-07 03:19 4.80203 -74.29071 11276 ft 189 kts 126°
2026-05-07 03:19 4.79426 -74.28042 11041 ft 182 kts 125°
2026-05-07 03:19 4.78664 -74.27029 10844 ft 182 kts 126°
2026-05-07 03:20 4.77897 -74.26010 10624 ft 182 kts 126°
2026-05-07 03:20 4.77134 -74.24998 10417 ft 181 kts 126°
2026-05-07 03:20 4.76374 -74.23989 10184 ft 180 kts 126°
2026-05-07 03:20 4.75619 -74.22987 9940 ft 179 kts 126°
2026-05-07 03:21 4.74869 -74.21992 9703 ft 179 kts 127°
2026-05-07 03:21 4.74120 -74.20997 9450 ft 178 kts 126°
2026-05-07 03:21 4.73375 -74.20009 9171 ft 177 kts 126°
2026-05-07 03:21 4.72632 -74.19019 8917 ft 178 kts 126°
2026-05-07 03:22 4.71882 -74.18023 8673 ft 180 kts 125°
2026-05-07 03:22 4.71131 -74.17018 8464 ft 179 kts 126°
2026-05-07 03:22 4.70414 -74.16070 8396 ft 148 kts 127°
2026-05-07 03:22 4.69925 -74.15424 8397 ft 85 kts 127°
2026-05-07 03:23 4.69680 -74.15099 8395 ft 47 kts 127°
2026-05-07 03:23 4.69487 -74.14845 8395 ft 44 kts 127°
2026-05-07 03:23 4.69373 -74.14694 8394 ft 12 kts 127°
2026-05-07 03:23 4.69352 -74.14643 8393 ft 8 kts 71°
2026-05-07 03:24 4.69392 -74.14601 8394 ft 8 kts 35°
2026-05-07 03:24 4.69437 -74.14570 8395 ft 8 kts 35°
2026-05-07 03:24 4.69480 -74.14539 8396 ft 7 kts 30°
2026-05-07 03:24 4.69523 -74.14549 8396 ft 7 kts 306°
2026-05-07 03:25 4.69559 -74.14592 8395 ft 8 kts 312°
2026-05-07 03:25 4.69601 -74.14639 8397 ft 10 kts 309°
2026-05-07 03:25 4.69647 -74.14699 8396 ft 11 kts 307°
2026-05-07 03:25 4.69698 -74.14765 8397 ft 13 kts 307°
2026-05-07 03:26 4.69752 -74.14837 8396 ft 12 kts 307°
2026-05-07 03:26 4.69796 -74.14873 8396 ft 8 kts 353°
2026-05-07 03:26 4.69847 -74.14851 8396 ft 9 kts 36°
2026-05-07 03:26 4.69900 -74.14811 8396 ft 10 kts 37°
2026-05-07 03:27 4.69957 -74.14767 8396 ft 11 kts 37°
2026-05-07 03:27 4.70020 -74.14720 8396 ft 12 kts 37°
2026-05-07 03:27 4.70087 -74.14668 8396 ft 13 kts 37°
2026-05-07 03:27 4.70159 -74.14614 8396 ft 13 kts 37°
2026-05-07 03:28 4.70236 -74.14555 8396 ft 15 kts 37°
2026-05-07 03:28 4.70321 -74.14491 8396 ft 16 kts 37°
2026-05-07 03:28 4.70391 -74.14436 8396 ft 6 kts 55°
2026-05-07 03:28 4.70386 -74.14392 8396 ft 7 kts 117°
2026-05-07 03:29 4.70354 -74.14348 8396 ft 8 kts 128°
2026-05-07 03:29 4.70316 -74.14299 8397 ft 9 kts 127°
2026-05-07 03:29 4.70274 -74.14244 8395 ft 10 kts 127°
2026-05-07 03:29 4.70243 -74.14213 8395 ft 4 kts 166°
2026-05-07 03:30 4.70212 -74.14221 8395 ft 5 kts 202°
2026-05-07 03:30 4.70182 -74.14240 8396 ft 5 kts 218°
2026-05-07 03:30 4.70153 -74.14257 8396 ft 5 kts 203°
2026-05-07 03:30 4.70128 -74.14267 8395 ft 3 kts 198°
2026-05-07 03:31 4.70116 -74.14270 8397 ft 1 kts 196°
2026-05-07 03:31 4.70108 -74.14272 8397 ft 1 kts 196°
2026-05-07 03:31 4.70103 -74.14274 8397 ft 1 kts 196°
2026-05-07 03:31 4.70102 -74.14274 8397 ft 0 kts 196°